QPF
0.00 0.00 0.00 0.01 0.01 0.01 0.01 0.02 0.02 0.02 0.02 0.04 0.04 0.04 0.03 0.02 0.02 0.02 0.01 0.01 0.01 0.01 0.00 0.01 0.01 0.02 0.03 0.06 0.08 0.09 0.10 0.10 0.12 0.13 0.13 0.11 0.10 0.11 0.14 0.12 0.08 0.06 0.05 0.05
0.00 0.00 0.00 0.00 0.00 0.01 0.01 0.01 0.02 0.02 0.02 0.04 0.04 0.03 0.02 0.02 0.02 0.02 0.02 0.02 0.01 0.01 0.01 0.01 0.01 0.01 0.02 0.04 0.07 0.10 0.10 0.10 0.11 0.12 0.13 0.14 0.14 0.14 0.15 0.13 0.09 0.07 0.06 0.04
0.00 0.00 0.00 0.00 0.00 0.01 0.01 0.01 0.02 0.03 0.03 0.04 0.05 0.05 0.04 0.02 0.02 0.02 0.02 0.02 0.02 0.01 0.01 0.01 0.01 0.02 0.03 0.03 0.06 0.09 0.10 0.10 0.10 0.09 0.09 0.10 0.13 0.15 0.14 0.12 0.09 0.07 0.06 0.05
0.01 0.00 0.00 0.00 0.00 0.00 0.00 0.01 0.01 0.02 0.03 0.03 0.04 0.05 0.06 0.04 0.03 0.02 0.03 0.03 0.02 0.02 0.02 0.02 0.02 0.02 0.03 0.04 0.05 0.08 0.09 0.09 0.08 0.07 0.08 0.08 0.08 0.10 0.11 0.11 0.09 0.07 0.06 0.06
0.01 0.01 0.00 0.00 0.00 0.00 0.00 0.00 0.01 0.01 0.01 0.02 0.01 0.03 0.06 0.07 0.05 0.04 0.04 0.04 0.04 0.03 0.02 0.02 0.02 0.02 0.03 0.05 0.06 0.07 0.08 0.08 0.08 0.07 0.06 0.06 0.07 0.07 0.07 0.07 0.06 0.06 0.06 0.05
0.02 0.01 0.00 0.00 0.00 0.00 0.00 0.00 0.00 0.01 0.02 0.02 0.02 0.04 0.07 0.08 0.07 0.06 0.06 0.05 0.04 0.03 0.02 0.02 0.02 0.02 0.04 0.04 0.05 0.06 0.07 0.08 0.08 0.07 0.05 0.04 0.05 0.06 0.07 0.06 0.05 0.05 0.04 0.04
0.02 0.02 0.00 0.00 0.00 0.00 0.00 0.00 0.00 0.01 0.02 0.03 0.03 0.05 0.06 0.05 0.05 0.04 0.03 0.03 0.03 0.02 0.02 0.02 0.02 0.02 0.02 0.03 0.04 0.05 0.06 0.07 0.07 0.06 0.05 0.04 0.04 0.04 0.06 0.07 0.05 0.04 0.04 0.04
0.02 0.02 0.01 0.00 0.00 0.00 0.00 0.00 0.00 0.00 0.01 0.02 0.02 0.02 0.02 0.02 0.02 0.02 0.02 0.02 0.02 0.01 0.01 0.01 0.02 0.02 0.02 0.02 0.04 0.05 0.05 0.05 0.05 0.06 0.05 0.05 0.04 0.04 0.05 0.06 0.06 0.05 0.04 0.04
0.01 0.01 0.01 0.01 0.00 0.00 0.00 0.00 0.00 0.00 0.00 0.01 0.01 0.01 0.02 0.02 0.01 0.02 0.02 0.02 0.02 0.02 0.01 0.02 0.02 0.02 0.02 0.02 0.04 0.04 0.04 0.05 0.05 0.05 0.05 0.05 0.05 0.04 0.05 0.05 0.07 0.07 0.06 0.06
0.01 0.00 0.00 0.00 0.00 0.00 0.00 0.00 0.00 0.00 0.00 0.01 0.01 0.01 0.01 0.01 0.02 0.02 0.03 0.03 0.03 0.02 0.02 0.03 0.02 0.02 0.03 0.03 0.04 0.04 0.04 0.05 0.06 0.06 0.06 0.06 0.06 0.05 0.05 0.05 0.06 0.06 0.06 0.07
0.01 0.00 0.00 0.00 0.00 0.00 0.00 0.00 0.00 0.00 0.00 0.01 0.01 0.01 0.01 0.01 0.02 0.02 0.03 0.04 0.04 0.03 0.03 0.03 0.03 0.03 0.03 0.04 0.04 0.04 0.03 0.04 0.05 0.06 0.05 0.05 0.06 0.06 0.06 0.06 0.06 0.06 0.07 0.06
0.01 0.00 0.01 0.01 0.01 0.01 0.01 0.01 0.01 0.01 0.01 0.01 0.01 0.01 0.01 0.01 0.02 0.02 0.02 0.03 0.03 0.03 0.03 0.03 0.03 0.03 0.03 0.04 0.04 0.04 0.03 0.03 0.04 0.05 0.05 0.05 0.05 0.06 0.07 0.07 0.07 0.07 0.07 0.06
0.01 0.01 0.01 0.01 0.01 0.01 0.01 0.01 0.01 0.01 0.01 0.01 0.01 0.01 0.01 0.01 0.02 0.02 0.02 0.02 0.03 0.03 0.03 0.03 0.03 0.02 0.03 0.04 0.04 0.04 0.04 0.04 0.04 0.04 0.05 0.05 0.04 0.05 0.05 0.07 0.08 0.09 0.08 0.07
0.01 0.01 0.01 0.01 0.01 0.01 0.01 0.01 0.01 0.01 0.01 0.01 0.01 0.01 0.01 0.01 0.01 0.01 0.01 0.01 0.02 0.03 0.03 0.03 0.03 0.03 0.03 0.04 0.03 0.03 0.03 0.04 0.04 0.04 0.04 0.04 0.04 0.04 0.04 0.05 0.06 0.07 0.08 0.08
0.01 0.01 0.01 0.01 0.01 0.01 0.01 0.01 0.01 0.01 0.01 0.01 0.01 0.01 0.01 0.01 0.01 0.01 0.01 0.02 0.02 0.02 0.02 0.02 0.02 0.02 0.03 0.03 0.03 0.03 0.03 0.03 0.03 0.03 0.04 0.04 0.04 0.04 0.04 0.04 0.05 0.05 0.06 0.07
0.01 0.01 0.01 0.01 0.01 0.01 0.01 0.01 0.01 0.01 0.01 0.01 0.01 0.01 0.01 0.01 0.01 0.01 0.01 0.01 0.01 0.01 0.01 0.02 0.02 0.02 0.02 0.03 0.02 0.02 0.02 0.03 0.02 0.02 0.03 0.03 0.03 0.04 0.04 0.03 0.03 0.04 0.05 0.06
0.01 0.01 0.01 0.01 0.01 0.01 0.01 0.01 0.01 0.01 0.01 0.01 0.01 0.01 0.01 0.00 0.00 0.00 0.01 0.01 0.01 0.01 0.01 0.01 0.01 0.01 0.01 0.02 0.02 0.02 0.02 0.02 0.02 0.02 0.02 0.02 0.02 0.03 0.03 0.03 0.03 0.03 0.04 0.05
0.01 0.01 0.01 0.01 0.01 0.01 0.01 0.01 0.01 0.01 0.01 0.01 0.01 0.01 0.01 0.01 0.00 0.00 0.00 0.00 0.00 0.00 0.00 0.00 0.01 0.01 0.01 0.01 0.01 0.01 0.01 0.01 0.01 0.01 0.01 0.01 0.02 0.02 0.02 0.02 0.02 0.03 0.03 0.03
0.01 0.01 0.01 0.01 0.01 0.01 0.01 0.01 0.01 0.01 0.01 0.01 0.01 0.01 0.01 0.01 0.01 0.01 0.01 0.01 0.01 0.01 0.01 0.01 0.01 0.01 0.00 0.00 0.01 0.01 0.01 0.01 0.01 0.01 0.01 0.01 0.01 0.01 0.02 0.02 0.02 0.02 0.02 0.03
0.01 0.01 0.01 0.01 0.01 0.01 0.01 0.01 0.01 0.01 0.01 0.01 0.01 0.01 0.01 0.01 0.01 0.01 0.01 0.01 0.01 0.01 0.01 0.01 0.01 0.01 0.01 0.01 0.01 0.01 0.01 0.01 0.01 0.01 0.01 0.01 0.01 0.01 0.01 0.01 0.02 0.02 0.02 0.02
0.01 0.01 0.01 0.01 0.00 0.00 0.01 0.01 0.01 0.01 0.01 0.01 0.01 0.01 0.02 0.02 0.01 0.01 0.01 0.01 0.01 0.01 0.01 0.01 0.01 0.01 0.01 0.01 0.01 0.01 0.01 0.01 0.01 0.01 0.01 0.01 0.01 0.01 0.01 0.01 0.02 0.02 0.02 0.02
0.01 0.00 0.00 0.00 0.00 0.00 0.01 0.01 0.01 0.01 0.01 0.01 0.01 0.01 0.01 0.01 0.01 0.01 0.01 0.01 0.01 0.02 0.01 0.01 0.01 0.01 0.01 0.01 0.01 0.01 0.01 0.01 0.01 0.01 0.01 0.01 0.01 0.02 0.02 0.02 0.02 0.02 0.02 0.02
0.00 0.01 0.01 0.01 0.01 0.01 0.01 0.01 0.01 0.01 0.01 0.01 0.01 0.01 0.01 0.01 0.01 0.01 0.01 0.01 0.01 0.02 0.01 0.01 0.02 0.02 0.01 0.01 0.01 0.01 0.01 0.01 0.01 0.01 0.01 0.01 0.01 0.02 0.02 0.02 0.02 0.02 0.02 0.02
0.01 0.00 0.01 0.01 0.01 0.01 0.01 0.01 0.01 0.01 0.01 0.01 0.01 0.01 0.01 0.01 0.01 0.01 0.01 0.01 0.01 0.01 0.01 0.01 0.01 0.01 0.01 0.01 0.01 0.01 0.01 0.01 0.01 0.01 0.02 0.02 0.02 0.02 0.02 0.02 0.02 0.03 0.02 0.02
0.01 0.00 0.00 0.01 0.01 0.01 0.01 0.01 0.01 0.01 0.01 0.01 0.01 0.01 0.01 0.01 0.01 0.01 0.01 0.01 0.01 0.01 0.01 0.01 0.01 0.01 0.01 0.01 0.01 0.01 0.01 0.02 0.02 0.02 0.02 0.02 0.03 0.03 0.03 0.03 0.03 0.03 0.03 0.03
0.01 0.01 0.01 0.01 0.01 0.01 0.01 0.01 0.01 0.01 0.01 0.01 0.01 0.01 0.01 0.01 0.01 0.01 0.01 0.01 0.01 0.01 0.01 0.01 0.01 0.01 0.01 0.01 0.01 0.01 0.01 0.02 0.02 0.02 0.02 0.03 0.03 0.03 0.03 0.03 0.03 0.03 0.03 0.03
0.01 0.01 0.01 0.01 0.01 0.01 0.01 0.01 0.01 0.01 0.01 0.01 0.01 0.01 0.01 0.01 0.01 0.01 0.01 0.01 0.01 0.01 0.01 0.01 0.01 0.01 0.01 0.01 0.01 0.01 0.01 0.02 0.02 0.02 0.02 0.03 0.03 0.03 0.03 0.03 0.03 0.03 0.03 0.03
MSLP
1029.01 1029.01 1028.81 1028.34 1027.58 1026.52 1025.18 1023.62 1021.94 1020.26 1018.68 1017.33 1016.29 1015.61 1015.28 1015.27 1015.50 1015.88 1016.32 1016.72 1017.03 1017.24 1017.35 1017.41 1017.47 1017.59 1017.79 1018.11 1018.54 1019.05 1019.60 1020.16 1020.68 1021.13 1021.52 1021.85 1022.15 1022.43 1022.72 1023.02 1023.34 1023.66 1023.94 1024.18
1028.47 1028.19 1027.69 1026.95 1025.96 1024.74 1023.33 1021.80 1020.23 1018.73 1017.39 1016.28 1015.47 1014.96 1014.73 1014.75 1014.92 1015.19 1015.46 1015.70 1015.85 1015.93 1015.97 1015.99 1016.05 1016.19 1016.45 1016.83 1017.31 1017.86 1018.45 1019.03 1019.57 1020.05 1020.47 1020.84 1021.18 1021.51 1021.85 1022.20 1022.55 1022.89 1023.18 1023.42
1027.84 1027.29 1026.53 1025.54 1024.36 1023.01 1021.57 1020.09 1018.67 1017.36 1016.25 1015.38 1014.77 1014.40 1014.25 1014.27 1014.38 1014.52 1014.64 1014.71 1014.72 1014.69 1014.65 1014.65 1014.72 1014.90 1015.21 1015.65 1016.18 1016.78 1017.40 1018.00 1018.55 1019.05 1019.49 1019.89 1020.27 1020.64 1021.01 1021.39 1021.75 1022.09 1022.38 1022.60
1027.17 1026.39 1025.40 1024.23 1022.90 1021.49 1020.05 1018.66 1017.38 1016.27 1015.36 1014.69 1014.24 1013.99 1013.88 1013.87 1013.90 1013.92 1013.89 1013.82 1013.71 1013.58 1013.49 1013.48 1013.57 1013.80 1014.16 1014.64 1015.22 1015.85 1016.48 1017.09 1017.66 1018.17 1018.62 1019.04 1019.44 1019.83 1020.21 1020.59 1020.96 1021.28 1021.54 1021.73
1026.45 1025.50 1024.35 1023.05 1021.66 1020.23 1018.84 1017.55 1016.41 1015.47 1014.74 1014.21 1013.88 1013.69 1013.59 1013.53 1013.47 1013.37 1013.22 1013.03 1012.82 1012.63 1012.52 1012.50 1012.62 1012.89 1013.30 1013.83 1014.43 1015.08 1015.72 1016.33 1016.89 1017.39 1017.85 1018.28 1018.68 1019.08 1019.46 1019.84 1020.18 1020.47 1020.69 1020.84
1025.61 1024.56 1023.33 1021.98 1020.58 1019.19 1017.88 1016.70 1015.70 1014.89 1014.29 1013.87 1013.60 1013.42 1013.30 1013.18 1013.02 1012.82 1012.57 1012.29 1012.02 1011.81 1011.69 1011.70 1011.86 1012.17 1012.61 1013.17 1013.79 1014.44 1015.07 1015.67 1016.22 1016.71 1017.17 1017.59 1017.99 1018.39 1018.77 1019.13 1019.44 1019.70 1019.88 1019.98
1024.59 1023.49 1022.25 1020.93 1019.59 1018.28 1017.08 1016.01 1015.13 1014.42 1013.90 1013.53 1013.27 1013.07 1012.89 1012.70 1012.46 1012.17 1011.86 1011.54 1011.25 1011.05 1010.96 1011.01 1011.22 1011.57 1012.05 1012.63 1013.26 1013.90 1014.52 1015.09 1015.62 1016.10 1016.55 1016.96 1017.37 1017.76 1018.13 1018.48 1018.77 1019.00 1019.14 1019.20
1023.30 1022.23 1021.05 1019.81 1018.58 1017.39 1016.31 1015.36 1014.56 1013.93 1013.44 1013.06 1012.78 1012.53 1012.28 1012.01 1011.70 1011.37 1011.02 1010.69 1010.43 1010.27 1010.24 1010.36 1010.63 1011.03 1011.55 1012.14 1012.77 1013.40 1014.00 1014.56 1015.06 1015.53 1015.97 1016.39 1016.80 1017.19 1017.57 1017.90 1018.18 1018.39 1018.50 1018.52
1021.77 1020.77 1019.70 1018.60 1017.50 1016.45 1015.49 1014.64 1013.92 1013.31 1012.82 1012.41 1012.06 1011.74 1011.42 1011.08 1010.73 1010.37 1010.03 1009.74 1009.54 1009.45 1009.50 1009.70 1010.04 1010.50 1011.05 1011.66 1012.29 1012.90 1013.49 1014.03 1014.53 1015.00 1015.44 1015.86 1016.28 1016.68 1017.06 1017.40 1017.67 1017.86 1017.95 1017.94
1020.08 1019.19 1018.26 1017.31 1016.37 1015.47 1014.62 1013.85 1013.17 1012.57 1012.04 1011.58 1011.15 1010.75 1010.36 1009.97 1009.59 1009.23 1008.93 1008.70 1008.58 1008.58 1008.72 1009.01 1009.42 1009.93 1010.52 1011.15 1011.78 1012.40 1012.98 1013.52 1014.02 1014.49 1014.94 1015.38 1015.82 1016.23 1016.62 1016.95 1017.22 1017.40 1017.47 1017.45
1018.38 1017.61 1016.83 1016.05 1015.26 1014.49 1013.74 1013.04 1012.37 1011.75 1011.18 1010.65 1010.14 1009.66 1009.21 1008.78 1008.39 1008.06 1007.81 1007.65 1007.62 1007.72 1007.96 1008.32 1008.80 1009.36 1009.98 1010.63 1011.27 1011.89 1012.48 1013.03 1013.54 1014.03 1014.50 1014.96 1015.41 1015.83 1016.22 1016.55 1016.81 1016.97 1017.03 1016.98
1016.86 1016.22 1015.58 1014.94 1014.29 1013.62 1012.96 1012.29 1011.63 1010.98 1010.35 1009.74 1009.17 1008.62 1008.13 1007.68 1007.30 1007.00 1006.81 1006.73 1006.78 1006.96 1007.28 1007.70 1008.23 1008.82 1009.46 1010.12 1010.78 1011.41 1012.01 1012.58 1013.12 1013.64 1014.13 1014.61 1015.07 1015.49 1015.87 1016.19 1016.41 1016.55 1016.58 1016.50
1015.65 1015.12 1014.60 1014.08 1013.53 1012.95 1012.33 1011.69 1011.02 1010.34 1009.66 1008.99 1008.36 1007.77 1007.24 1006.79 1006.43 1006.17 1006.04 1006.02 1006.14 1006.38 1006.74 1007.21 1007.75 1008.37 1009.01 1009.68 1010.34 1010.99 1011.62 1012.21 1012.79 1013.33 1013.85 1014.35 1014.81 1015.22 1015.57 1015.84 1016.03 1016.11 1016.09 1015.98
1014.79 1014.34 1013.92 1013.48 1013.00 1012.48 1011.90 1011.26 1010.58 1009.87 1009.15 1008.45 1007.78 1007.17 1006.63 1006.19 1005.86 1005.64 1005.55 1005.58 1005.74 1006.02 1006.40 1006.87 1007.42 1008.03 1008.67 1009.33 1010.00 1010.66 1011.31 1011.94 1012.55 1013.13 1013.67 1014.17 1014.62 1015.01 1015.31 1015.53 1015.65 1015.67 1015.59 1015.41
1014.21 1013.82 1013.45 1013.07 1012.65 1012.15 1011.59 1010.96 1010.27 1009.54 1008.81 1008.08 1007.41 1006.80 1006.28 1005.86 1005.57 1005.39 1005.33 1005.40 1005.58 1005.87 1006.25 1006.71 1007.24 1007.82 1008.44 1009.09 1009.76 1010.44 1011.12 1011.78 1012.42 1013.02 1013.59 1014.09 1014.52 1014.86 1015.11 1015.26 1015.30 1015.24 1015.08 1014.84
1013.77 1013.41 1013.08 1012.73 1012.33 1011.85 1011.30 1010.68 1009.99 1009.27 1008.53 1007.82 1007.16 1006.58 1006.10 1005.73 1005.47 1005.33 1005.31 1005.41 1005.60 1005.88 1006.24 1006.68 1007.17 1007.73 1008.32 1008.96 1009.63 1010.32 1011.01 1011.70 1012.37 1013.01 1013.58 1014.08 1014.48 1014.78 1014.97 1015.04 1014.99 1014.85 1014.61 1014.31
1013.28 1012.94 1012.62 1012.29 1011.91 1011.45 1010.91 1010.30 1009.63 1008.92 1008.22 1007.54 1006.93 1006.39 1005.97 1005.65 1005.45 1005.36 1005.38 1005.50 1005.70 1005.98 1006.32 1006.73 1007.20 1007.72 1008.29 1008.91 1009.58 1010.27 1010.99 1011.70 1012.39 1013.04 1013.62 1014.11 1014.49 1014.74 1014.87 1014.87 1014.74 1014.52 1014.21 1013.85
1012.61 1012.29 1011.98 1011.66 1011.29 1010.85 1010.33 1009.74 1009.10 1008.43 1007.77 1007.15 1006.60 1006.14 1005.78 1005.53 1005.40 1005.37 1005.44 1005.59 1005.81 1006.09 1006.43 1006.82 1007.26 1007.76 1008.32 1008.93 1009.58 1010.28 1011.01 1011.73 1012.44 1013.10 1013.68 1014.15 1014.50 1014.72 1014.79 1014.73 1014.55 1014.26 1013.89 1013.48
1011.74 1011.43 1011.14 1010.83 1010.47 1010.05 1009.56 1009.00 1008.40 1007.79 1007.19 1006.63 1006.15 1005.76 1005.49 1005.32 1005.26 1005.30 1005.42 1005.62 1005.87 1006.18 1006.53 1006.92 1007.36 1007.85 1008.39 1008.99 1009.64 1010.33 1011.05 1011.78 1012.48 1013.13 1013.70 1014.16 1014.48 1014.67 1014.70 1014.60 1014.37 1014.05 1013.65 1013.20
1010.77 1010.48 1010.20 1009.92 1009.58 1009.18 1008.72 1008.20 1007.64 1007.08 1006.54 1006.05 1005.64 1005.33 1005.12 1005.03 1005.05 1005.16 1005.35 1005.60 1005.90 1006.25 1006.62 1007.03 1007.48 1007.97 1008.51 1009.10 1009.73 1010.41 1011.11 1011.81 1012.49 1013.12 1013.66 1014.09 1014.39 1014.55 1014.56 1014.43 1014.18 1013.84 1013.42 1012.97
1009.90 1009.63 1009.39 1009.12 1008.80 1008.43 1007.99 1007.50 1006.98 1006.46 1005.97 1005.53 1005.18 1004.93 1004.80 1004.77 1004.86 1005.04 1005.29 1005.60 1005.96 1006.35 1006.76 1007.20 1007.67 1008.16 1008.69 1009.27 1009.88 1010.52 1011.18 1011.84 1012.47 1013.05 1013.55 1013.94 1014.21 1014.34 1014.33 1014.19 1013.93 1013.59 1013.17 1012.72
1009.37 1009.14 1008.91 1008.66 1008.36 1008.00 1007.58 1007.11 1006.61 1006.12 1005.66 1005.25 1004.94 1004.73 1004.64 1004.67 1004.80 1005.03 1005.34 1005.70 1006.11 1006.54 1007.00 1007.46 1007.94 1008.44 1008.96 1009.51 1010.08 1010.67 1011.27 1011.86 1012.43 1012.94 1013.38 1013.71 1013.93 1014.03 1014.01 1013.86 1013.61 1013.27 1012.87 1012.43
1009.38 1009.17 1008.96 1008.71 1008.41 1008.05 1007.63 1007.16 1006.67 1006.18 1005.73 1005.34 1005.04 1004.85 1004.77 1004.82 1004.98 1005.24 1005.58 1005.98 1006.42 1006.89 1007.37 1007.86 1008.35 1008.84 1009.34 1009.84 1010.36 1010.88 1011.40 1011.90 1012.38 1012.81 1013.16 1013.43 1013.60 1013.66 1013.61 1013.45 1013.21 1012.88 1012.49 1012.06
1010.02 1009.81 1009.60 1009.34 1009.02 1008.64 1008.20 1007.72 1007.21 1006.71 1006.24 1005.84 1005.53 1005.33 1005.25 1005.29 1005.45 1005.72 1006.06 1006.48 1006.93 1007.41 1007.90 1008.39 1008.87 1009.34 1009.81 1010.26 1010.71 1011.15 1011.57 1011.98 1012.35 1012.68 1012.95 1013.14 1013.25 1013.26 1013.18 1013.02 1012.76 1012.44 1012.07 1011.65
1011.23 1011.01 1010.77 1010.48 1010.13 1009.71 1009.24 1008.72 1008.18 1007.65 1007.16 1006.73 1006.39 1006.17 1006.06 1006.08 1006.21 1006.45 1006.79 1007.19 1007.63 1008.10 1008.58 1009.05 1009.51 1009.95 1010.36 1010.75 1011.12 1011.47 1011.80 1012.11 1012.38 1012.61 1012.78 1012.89 1012.93 1012.90 1012.78 1012.59 1012.33 1012.01 1011.64 1011.22
1012.84 1012.59 1012.30 1011.96 1011.55 1011.09 1010.57 1010.01 1009.44 1008.88 1008.35 1007.89 1007.53 1007.26 1007.12 1007.10 1007.20 1007.40 1007.69 1008.06 1008.48 1008.92 1009.36 1009.80 1010.22 1010.61 1010.97 1011.29 1011.59 1011.86 1012.09 1012.30 1012.47 1012.61 1012.69 1012.73 1012.71 1012.62 1012.47 1012.25 1011.97 1011.63 1011.25 1010.82
1014.60 1014.29 1013.94 1013.53 1013.07 1012.55 1011.99 1011.40 1010.80 1010.22 1009.67 1009.19 1008.79 1008.49 1008.32 1008.25 1008.31 1008.47 1008.71 1009.03 1009.40 1009.80 1010.20 1010.60 1010.97 1011.30 1011.61 1011.87 1012.10 1012.29 1012.44 1012.56 1012.65 1012.70 1012.71 1012.68 1012.59 1012.45 1012.26 1012.01 1011.70 1011.34 1010.93 1010.49
Thickness
5332 5337 5334 5335 5337 5332 5327 5331 5336 5347 5347 5360 5357 5354 5356 5358 5361 5364 5366 5370 5373 5377 5382 5387 5393 5399 5405 5411 5418 5426 5434 5440 5445 5451 5456 5461 5465 5468 5472 5476 5481 5485 5489 5493
5323 5330 5327 5333 5337 5333 5330 5329 5329 5337 5345 5354 5350 5346 5348 5349 5351 5354 5358 5362 5366 5369 5374 5378 5383 5389 5396 5403 5410 5417 5424 5430 5436 5441 5447 5452 5456 5459 5462 5466 5470 5475 5479 5483
5318 5316 5325 5332 5334 5332 5327 5326 5326 5333 5344 5343 5342 5342 5341 5342 5343 5345 5349 5353 5356 5360 5365 5370 5374 5380 5386 5394 5402 5409 5415 5421 5426 5431 5437 5442 5446 5450 5452 5456 5459 5464 5469 5473
5302 5306 5319 5342 5328 5327 5325 5326 5323 5328 5332 5332 5332 5333 5334 5334 5335 5338 5341 5344 5348 5352 5357 5362 5366 5372 5379 5386 5393 5399 5406 5412 5417 5422 5427 5431 5434 5439 5442 5445 5448 5453 5458 5462
5291 5289 5307 5328 5323 5314 5315 5321 5319 5319 5323 5323 5323 5327 5330 5332 5330 5331 5333 5337 5340 5345 5349 5355 5360 5366 5372 5378 5384 5391 5397 5402 5407 5412 5417 5420 5424 5427 5431 5434 5437 5441 5446 5451
5281 5290 5307 5327 5314 5307 5310 5317 5320 5313 5313 5313 5315 5320 5328 5327 5326 5326 5328 5330 5334 5339 5343 5348 5353 5358 5364 5369 5375 5381 5387 5392 5397 5401 5406 5410 5414 5416 5419 5423 5427 5430 5435 5438
5274 5277 5296 5307 5301 5303 5309 5320 5313 5306 5305 5303 5303 5309 5316 5318 5319 5321 5323 5325 5329 5332 5336 5341 5346 5350 5355 5361 5366 5372 5377 5383 5389 5393 5396 5400 5403 5406 5409 5413 5417 5420 5423 5426
5266 5269 5294 5298 5293 5295 5303 5303 5300 5299 5298 5297 5299 5303 5306 5310 5312 5314 5316 5319 5322 5325 5329 5333 5337 5342 5348 5352 5357 5363 5368 5375 5380 5384 5387 5390 5394 5396 5400 5403 5405 5408 5410 5413
5279 5295 5297 5288 5290 5291 5289 5289 5290 5291 5292 5291 5293 5295 5298 5300 5302 5305 5307 5310 5313 5316 5321 5325 5329 5334 5339 5344 5348 5353 5359 5365 5370 5375 5378 5382 5385 5387 5389 5392 5395 5397 5399 5402
5269 5284 5285 5283 5281 5282 5280 5280 5283 5284 5285 5285 5285 5288 5289 5291 5294 5296 5299 5301 5304 5308 5312 5318 5322 5325 5329 5334 5339 5344 5349 5355 5360 5365 5369 5373 5376 5378 5380 5383 5385 5387 5389 5392
5263 5274 5277 5283 5281 5281 5280 5278 5278 5279 5279 5279 5279 5280 5281 5283 5285 5287 5291 5293 5296 5299 5304 5308 5313 5317 5321 5325 5330 5335 5340 5345 5349 5354 5358 5362 5366 5368 5371 5374 5376 5378 5381 5384
5277 5281 5275 5281 5281 5278 5275 5275 5274 5273 5274 5274 5273 5274 5275 5275 5277 5279 5282 5285 5288 5292 5296 5300 5304 5309 5313 5316 5320 5325 5330 5335 5339 5343 5347 5351 5355 5358 5361 5364 5367 5369 5372 5375
5277 5276 5272 5274 5273 5271 5269 5269 5268 5267 5267 5267 5267 5267 5268 5269 5270 5272 5274 5277 5280 5284 5288 5292 5296 5301 5304 5308 5312 5316 5320 5324 5328 5332 5335 5339 5343 5347 5350 5353 5356 5359 5362 5365
5267 5265 5266 5267 5266 5265 5263 5263 5262 5261 5261 5261 5261 5261 5261 5262 5263 5265 5267 5270 5273 5277 5280 5284 5288 5292 5296 5299 5303 5307 5310 5314 5318 5321 5324 5328 5332 5335 5338 5341 5343 5346 5349 5352
5262 5260 5261 5262 5260 5259 5257 5256 5255 5254 5254 5254 5254 5254 5254 5254 5256 5258 5260 5263 5266 5269 5272 5275 5279 5283 5287 5290 5294 5297 5300 5303 5307 5311 5314 5317 5321 5324 5326 5328 5330 5333 5335 5338
5258 5256 5255 5254 5254 5253 5251 5250 5249 5249 5249 5249 5248 5247 5247 5248 5249 5251 5252 5254 5257 5260 5263 5266 5270 5274 5277 5280 5284 5288 5290 5293 5297 5300 5303 5307 5310 5312 5315 5317 5319 5320 5322 5325
5251 5252 5250 5249 5248 5247 5245 5245 5244 5244 5244 5243 5243 5242 5241 5240 5242 5243 5245 5247 5249 5252 5255 5258 5261 5265 5268 5271 5274 5277 5280 5283 5287 5290 5292 5296 5298 5300 5302 5305 5307 5309 5310 5312
5247 5247 5246 5244 5243 5242 5241 5241 5240 5239 5239 5239 5238 5236 5235 5234 5235 5237 5238 5239 5242 5245 5248 5250 5254 5257 5260 5262 5265 5267 5270 5273 5275 5278 5281 5284 5286 5289 5290 5293 5295 5297 5299 5301
5242 5242 5241 5240 5239 5237 5236 5236 5235 5235 5234 5234 5232 5231 5230 5230 5231 5231 5232 5233 5234 5237 5241 5243 5247 5249 5251 5254 5256 5258 5260 5262 5265 5267 5270 5273 5276 5278 5280 5282 5283 5286 5288 5289
5238 5238 5236 5235 5234 5232 5232 5231 5230 5229 5229 5228 5228 5227 5226 5226 5225 5226 5226 5227 5229 5231 5234 5236 5238 5240 5243 5246 5248 5249 5250 5252 5254 5256 5258 5261 5263 5266 5268 5270 5272 5274 5276 5277
5233 5233 5232 5230 5229 5228 5227 5226 5225 5225 5225 5224 5223 5223 5222 5222 5221 5221 5221 5223 5226 5227 5229 5231 5232 5233 5235 5237 5239 5240 5241 5242 5244 5246 5248 5250 5252 5254 5256 5258 5260 5262 5264 5265
5227 5226 5225 5224 5223 5222 5222 5221 5220 5220 5220 5219 5219 5218 5217 5217 5216 5216 5217 5218 5220 5222 5223 5224 5225 5227 5229 5230 5230 5231 5232 5233 5235 5236 5238 5239 5241 5243 5245 5247 5248 5250 5252 5253
5222 5221 5220 5219 5218 5217 5216 5216 5215 5215 5214 5214 5214 5213 5212 5212 5211 5211 5212 5213 5214 5216 5216 5217 5218 5220 5222 5221 5221 5222 5223 5224 5225 5226 5228 5229 5231 5232 5234 5236 5238 5239 5240 5242
5217 5216 5215 5213 5212 5211 5211 5211 5211 5210 5209 5209 5208 5208 5207 5206 5206 5206 5207 5208 5209 5210 5209 5210 5212 5212 5212 5211 5211 5212 5213 5214 5215 5216 5218 5219 5221 5222 5224 5226 5227 5229 5230 5231
5212 5210 5209 5207 5207 5207 5207 5206 5205 5204 5204 5203 5203 5203 5202 5202 5201 5201 5201 5201 5202 5202 5202 5202 5203 5204 5203 5203 5203 5203 5204 5205 5206 5207 5208 5209 5211 5212 5214 5216 5217 5219 5220 5221
5207 5206 5204 5203 5202 5202 5201 5201 5200 5199 5199 5199 5198 5198 5197 5196 5196 5195 5195 5194 5194 5195 5194 5194 5194 5195 5194 5194 5195 5195 5196 5197 5197 5198 5199 5200 5201 5202 5204 5206 5207 5208 5210 5211
5201 5200 5199 5198 5198 5197 5196 5195 5194 5194 5194 5193 5192 5192 5191 5190 5189 5189 5188 5188 5187 5187 5186 5186 5186 5186 5186 5187 5187 5187 5188 5188 5189 5189 5190 5191 5192 5194 5195 5196 5197 5199 5200 5202